Weather reports worldwide

Advertisment
Bergerac, France (7530): temperature & dewpoint: 16.06.2018 15:00:00 - 22.06.2018 15:00:00 (CEST)Bergerac, France (7530): temperature 5cm: 16.06.2018 15:00:00 - 22.06.2018 15:00:00 (CEST)Bergerac, France (7530): temperature -20cm & temperature -100cm: 16.06.2018 15:00:00 - 22.06.2018 15:00:00 (CEST)Bergerac, France (7530): wind speed & gusts: 16.06.2018 15:00:00 - 22.06.2018 15:00:00 (CEST)Bergerac, France (7530): wind direction: 16.06.2018 15:00:00 - 22.06.2018 15:00:00 (CEST)Bergerac, France (7530): reduced air pressure: 16.06.2018 15:00:00 - 22.06.2018 15:00:00 (CEST)Bergerac, France (7530): visibility: 16.06.2018 15:00:00 - 22.06.2018 15:00:00 (CEST)Bergerac, France (7530): sunshine duration: 16.06.2018 15:00:00 - 22.06.2018 15:00:00 (CEST)Bergerac, France (7530): precipitation: 16.06.2018 15:00:00 - 22.06.2018 15:00:00 (CEST)
Date & Time tt [°C] td [°C] tt 5cm [°C] tt -20cm [°C] tt -100cm [°C] ff [km/h] ff [kn] fx [km/h] fx [kn] dd ppp [hPa] vv [km] sd [min] rr [mm]
22.06.2018 15:00:00 25,0 10,1 30,8 21,8 17,9 16 9 32 18 NNE 1021,4 53 60 0,0
22.06.2018 14:00:00 24,2 11,2 29,7 21,6 17,8 14 8 35 19 N 1021,9 20 60 0,0
22.06.2018 13:00:00 22,8 9,6 28,3 21,6 17,8 19 11 36 19 NNE 1022,2 36 60 0,0
22.06.2018 12:00:00 21,9 11,0 26,7 21,6 17,8 19 10 29 16 N 1022,3 44 60 0,0
22.06.2018 11:00:00 20,8 11,4 26,4 21,7 17,8 19 10 34 18 NNE 1022,1 49 60 0,0
22.06.2018 10:00:00 19,6 11,1 24,2 21,8 17,8 13 7 26 14 NNE 1022,0 60 60 0,0
22.06.2018 09:00:00 18,4 11,2 19,9 21,9 17,8 13 7 27 15 NNE 1021,9 60 60 0,0
22.06.2018 08:00:00 16,8 10,6 15,8 22,1 17,8 10 6 21 11 NNE 1021,6 60 60 0,0
22.06.2018 07:00:00 16,3 10,4 13,3 22,3 17,8 6 3 19 10 N 1021,6 53 23 0,0
22.06.2018 06:00:00 16,2 11,8 13,0 22,4 17,8 8 4 18 10 NNE 1021,2 4,9 0 0,0
22.06.2018 05:00:00 17,3 13,8 14,2 22,6 17,8 6 3 18 10 N 1020,8 47 0 0,0
22.06.2018 04:00:00 17,9 14,6 14,9 22,7 17,8 3 2 16 9 ENE 1020,6 40 0 0,0
22.06.2018 03:00:00 19,2 15,3 15,5 22,9 17,8 8 5 16 9 N 1020,4 39 0 0,0
22.06.2018 02:00:00 20,0 16,0 15,5 23,0 17,7 6 3 16 9 N 1020,5 44 0 0,0
22.06.2018 01:00:00 21,3 16,7 16,7 23,1 17,7 7 4 17 9 N 1020,3 58 0 0,0
22.06.2018 00:00:00 22,7 16,9 19,6 23,2 17,7 6 3 22 12 NNE 1020,3 59 0 0,0
21.06.2018 23:00:00 23,6 16,9 19,6 23,3 17,7 10 5 18 10 N 1019,7 60 0 0,0
21.06.2018 22:00:00 25,1 17,0 20,5 23,3 17,7 8 4 19 11 NNW 1018,8 2,3 14 0,0
21.06.2018 21:00:00 27,6 17,2 27,1 23,2 17,7 12 7 30 16 N 1018,0 47 60 0,0
21.06.2018 20:00:00 29,3 17,5 29,2 23,1 17,7 18 10 31 17 NNW 1017,8 34 60 0,0
21.06.2018 19:00:00 30,4 19,7 28,9 22,9 17,7 18 10 31 17 W 1017,5 34 40 0,0
21.06.2018 18:00:00 30,0 18,4 29,8 22,6 17,7 16 8 32 17 W 1017,7 49 40 0,0
21.06.2018 17:00:00 31,4 20,4 32,2 22,4 17,6 16 8 30 16 W 1017,8 39 54 0,0
21.06.2018 16:00:00 31,1 20,7 36,5 22,1 17,6 15 8 26 14 W 1018,1 16 60 0,0
21.06.2018 15:00:00 30,1 21,7 35,9 21,8 17,6 14 7 32 17 W 1018,3 20 60 0,0
21.06.2018 14:00:00 28,7 21,0 33,8 21,6 17,6 10 5 20 11 WSW 1018,6 23 60 0,0
21.06.2018 13:00:00 27,2 21,2 31,9 21,5 17,6 8 4 21 11 W 1019,0 16 56 0,0
21.06.2018 12:00:00 25,5 21,2 26,7 21,5 17,6 8 4 16 8 W 1019,3 13 24 0,0
21.06.2018 11:00:00 23,2 20,5 23,4 21,6 17,6 8 4 16 9 W 1019,3 12 0 -
21.06.2018 10:00:00 21,4 20,2 22,1 21,7 - 9 5 16 9 W 1019,4 7 0 0,0
21.06.2018 09:00:00 20,5 19,7 21,5 21,9 - 12 6 16 9 W 1019,3 6 12 0,0
21.06.2018 08:00:00 20,2 19,5 17,8 22,0 - 10 5 14 8 W 1019,0 11 60 0,0
21.06.2018 07:00:00 17,1 16,8 15,2 22,2 - 3 1 6 3 SSW 1018,4 8 23 0,0
21.06.2018 06:00:00 17,2 16,9 14,7 22,3 - 4 2 7 4 ENE 1017,6 7 0 0,0
21.06.2018 05:00:00 17,5 17,2 15,2 22,4 - 7 4 8 4 E 1017,4 4,5 0 0,0
21.06.2018 04:00:00 17,7 17,2 15,2 22,6 - 4 2 8 4 E 1017,6 6 0 0,0
21.06.2018 03:00:00 18,4 17,9 15,6 22,7 - 6 4 7 4 E 1017,7 7 0 0,0
21.06.2018 02:00:00 19,2 18,7 15,9 22,8 - 4 2 6 3 ENE 1017,8 11 0 0,0
21.06.2018 01:00:00 19,7 18,7 16,2 22,9 - 3 1 5 3 E 1017,9 13 0 0,0
21.06.2018 00:00:00 20,7 19,4 17,1 22,9 - 3 2 4 2 E 1017,9 19 0 0,0
20.06.2018 23:00:00 22,5 20,4 18,4 22,9 - 2 1 5 3 E 1017,7 35 0 0,0
20.06.2018 22:00:00 24,8 20,7 20,7 22,8 - 4 2 8 4 ESE 1017,1 46 12 0,0
20.06.2018 21:00:00 30,7 19,4 30,5 22,7 - 4 2 9 5 NNE 1016,5 59 60 0,0
20.06.2018 20:00:00 31,8 17,7 31,7 22,6 - 4 2 19 11 NE 1016,6 56 60 0,0
20.06.2018 19:00:00 32,5 18,3 38,2 22,3 - 4 2 10 5 E 1016,5 52 60 0,0
20.06.2018 18:00:00 32,7 17,3 33,1 22,1 - 4 2 19 11 S 1016,8 57 60 0,0
20.06.2018 17:00:00 31,7 19,3 31,8 21,7 - 6 3 18 10 NE 1017,2 20 26 0,0
20.06.2018 16:00:00 30,8 19,8 30,9 21,4 - 3 2 19 10 N 1017,4 20 28 0,0
20.06.2018 15:00:00 31,6 20,2 36,8 21,1 - 4 2 14 8 S 1017,7 54 53 0,0
20.06.2018 14:00:00 30,9 19,6 38,3 20,8 - 7 4 18 10 N 1018,1 20 60 0,0
20.06.2018 13:00:00 30,2 20,4 37,8 20,6 36,7 5 3 14 7 E 1018,5 58 60 0,0
20.06.2018 12:00:00 28,5 20,0 35,2 20,5 37,5 4 2 17 9 ESE 1018,6 57 60 0,0
20.06.2018 11:00:00 26,6 19,5 32,8 20,6 35,7 6 3 14 8 N 1018,8 20 60 0,0
20.06.2018 10:00:00 25,0 19,1 29,2 20,6 34,9 6 4 14 8 NE 1018,9 52 60 0,0
20.06.2018 09:00:00 22,5 19,1 24,3 20,7 33,6 6 4 11 6 E 1019,0 22 60 0,0
20.06.2018 08:00:00 19,1 17,9 16,2 20,9 32,6 5 3 9 5 E 1019,1 16 60 0,0
20.06.2018 07:00:00 15,9 15,6 12,2 21,0 32,5 5 3 7 4 E 1019,1 16 23 0,0
20.06.2018 06:00:00 15,0 14,5 12,3 21,2 32,1 4 2 5 3 ENE 1018,9 2,5 0 0,0
20.06.2018 05:00:00 15,7 15,2 12,9 21,3 32,3 3 2 7 4 E 1018,9 5 0 0,2
20.06.2018 04:00:00 16,5 16,2 13,5 21,4 32,1 3 2 8 5 E 1019,1 8 0 0,0
20.06.2018 03:00:00 16,4 15,8 13,4 21,6 32,2 5 3 6 3 ENE 1019,1 16 0 0,0
20.06.2018 02:00:00 17,3 16,5 13,8 21,6 32,3 2 1 6 3 SSE 1019,4 13 0 0,0
20.06.2018 01:00:00 17,9 16,4 14,6 21,7 32,2 3 1 5 3 ENE 1019,5 30 0 0,0
20.06.2018 00:00:00 19,9 17,3 16,4 21,7 32,4 2 1 10 6 W 1019,6 43 0 0,0
19.06.2018 23:00:00 20,8 18,6 17,7 21,7 32,1 5 3 9 5 SW 1019,6 46 0 0,0
19.06.2018 22:00:00 23,3 18,4 19,8 21,6 33,1 6 3 10 5 SW 1019,3 18 12 0,0
19.06.2018 21:00:00 28,2 17,7 28,3 21,5 35,0 6 4 10 6 NW 1019,4 19 60 0,0
19.06.2018 20:00:00 28,8 17,7 28,6 21,3 35,1 8 4 17 9 N 1019,6 56 60 0,0
19.06.2018 19:00:00 29,6 17,8 32,2 21,0 35,1 6 3 17 9 N 1020,0 52 60 0,0
19.06.2018 18:00:00 28,5 17,4 31,0 20,7 34,3 8 5 22 12 NE 1020,6 59 53 0,0
19.06.2018 17:00:00 28,3 16,9 31,0 20,4 32,7 9 5 26 14 NNE 1021,2 52 48 0,0
19.06.2018 16:00:00 28,2 17,1 28,5 20,1 32,6 9 5 30 16 N 1021,6 20 49 0,0
19.06.2018 15:00:00 27,4 16,4 27,8 19,8 31,5 13 7 29 16 ENE 1022,1 60 47 0,0
19.06.2018 14:00:00 26,7 16,9 28,2 19,6 30,6 15 8 29 16 NE 1022,7 60 48 0,0
19.06.2018 13:00:00 26,1 16,9 27,4 19,5 29,4 14 8 27 15 N 1023,3 20 53 0,0
19.06.2018 12:00:00 24,0 15,8 25,6 19,4 29,7 13 7 27 15 NNE 1023,9 56 31 0,0
19.06.2018 11:00:00 24,0 16,8 27,9 19,4 30,0 11 6 21 11 NE 1024,3 60 57 0,0
19.06.2018 10:00:00 21,7 16,2 26,6 19,5 29,5 4 2 11 6 N 1025,0 19 60 0,0
19.06.2018 09:00:00 18,2 15,6 21,0 19,6 28,7 5 3 9 5 WNW 1025,4 20 60 0,0
19.06.2018 08:00:00 15,9 15,1 14,3 19,8 27,7 4 2 7 4 W 1025,5 18 60 0,0
19.06.2018 07:00:00 13,0 12,5 9,9 19,9 26,9 0 0 4 2 N 1025,5 4,7 23 0,0
19.06.2018 06:00:00 12,6 12,0 9,8 20,0 26,5 2 1 4 2 E 1025,5 3,0 0 0,0
19.06.2018 05:00:00 13,6 13,0 10,3 20,1 26,5 4 2 8 4 WNW 1025,6 16 0 0,0
19.06.2018 04:00:00 14,2 13,4 11,1 20,2 26,4 6 3 10 6 WSW 1025,6 20 0 0,0
19.06.2018 03:00:00 14,9 13,9 13,1 20,3 26,4 8 4 11 6 WSW 1025,7 33 0 0,0
19.06.2018 02:00:00 15,2 14,1 13,0 20,4 26,8 7 4 12 7 WSW 1025,8 36 0 0,0
19.06.2018 01:00:00 16,5 14,5 14,8 20,4 27,1 9 5 14 8 W 1025,8 42 0 0,0
19.06.2018 00:00:00 18,5 14,8 17,0 20,5 27,1 9 5 16 9 NW 1025,7 58 0 0,0
18.06.2018 23:00:00 19,7 15,8 18,7 20,4 27,3 9 5 16 9 WNW 1025,6 59 0 0,0
18.06.2018 22:00:00 20,5 15,9 17,6 20,4 27,1 8 4 14 7 NW 1024,9 1,8 14 0,0
18.06.2018 21:00:00 22,7 15,8 22,9 20,3 27,7 6 3 16 9 N 1024,5 60 41 0,0
18.06.2018 20:00:00 23,0 16,3 23,5 20,2 28,2 7 4 18 10 NNW 1024,5 58 26 0,0
18.06.2018 19:00:00 22,7 16,0 24,0 20,0 28,5 8 5 14 7 WNW 1024,7 60 0 0,0
18.06.2018 18:00:00 22,6 16,6 23,5 19,8 28,0 8 4 19 10 WNW 1024,8 58 1 0,0
18.06.2018 17:00:00 23,4 16,4 27,3 19,7 28,6 5 3 16 9 NW 1024,8 51 27 0,0
18.06.2018 16:00:00 23,1 16,6 27,5 19,5 28,7 6 3 17 9 SW 1025,4 52 10 0,0
18.06.2018 15:00:00 22,3 16,6 24,0 19,4 29,2 9 5 16 9 SW 1025,6 53 17 0,0
18.06.2018 14:00:00 20,5 16,3 23,2 19,3 28,2 9 5 21 11 WSW 1025,8 41 13 0,0
18.06.2018 13:00:00 19,5 16,2 19,6 19,3 27,4 8 5 17 9 WSW 1026,2 19 0 0,0
18.06.2018 12:00:00 18,5 15,2 20,0 19,3 26,9 9 5 16 8 WSW 1026,2 17 0 0,0
18.06.2018 11:00:00 18,1 14,8 19,6 19,3 26,8 7 4 17 9 WSW 1026,2 32 0 0,0
18.06.2018 10:00:00 17,7 14,6 18,9 19,3 26,6 4 2 11 6 WSW 1026,4 32 7 0,0
18.06.2018 09:00:00 16,6 14,6 17,6 19,4 26,8 2 1 6 4 S 1026,4 17 0 0,0
18.06.2018 08:00:00 15,3 14,2 14,4 19,5 26,3 4 2 9 5 SSE 1026,1 9 12 0,0
18.06.2018 07:00:00 14,7 13,6 14,3 19,6 26,2 2 1 6 3 WNW 1026,0 7 0 0,0
18.06.2018 06:00:00 14,7 13,4 14,2 19,7 26,1 2 1 4 2 SE 1025,9 6 0 0,0
18.06.2018 05:00:00 14,6 13,0 13,9 19,8 26,0 0 0 6 3 N 1025,5 29 0 0,0
18.06.2018 04:00:00 14,2 13,1 13,3 19,9 25,7 0 0 6 3 N 1025,4 29 0 0,0
18.06.2018 03:00:00 13,3 12,7 9,8 20,0 25,8 3 1 6 3 SW 1025,7 19 0 0,0
18.06.2018 02:00:00 12,5 11,4 9,8 20,1 25,4 4 2 7 4 W 1025,6 30 0 0,0
18.06.2018 01:00:00 13,1 11,5 10,0 20,2 25,8 4 2 10 6 W 1025,8 25 0 0,0
18.06.2018 00:00:00 14,0 11,9 11,9 20,3 25,9 8 5 14 8 W 1025,8 33 0 0,0
17.06.2018 23:00:00 15,6 12,0 14,2 20,3 26,0 11 6 23 13 W 1025,3 41 0 0,0
17.06.2018 22:00:00 17,6 12,3 16,0 20,4 25,8 12 7 24 13 WNW 1024,9 16 8 0,0
17.06.2018 21:00:00 19,8 12,8 19,6 20,3 26,2 17 9 33 18 WNW 1023,9 39 47 0,0
17.06.2018 20:00:00 21,5 13,4 22,7 20,2 26,6 27 14 37 20 WNW 1023,7 40 39 0,0
17.06.2018 19:00:00 22,3 13,9 23,2 20,0 26,7 18 10 32 18 W 1023,3 47 32 0,0
17.06.2018 18:00:00 23,7 14,4 22,8 19,9 26,7 18 10 31 17 W 1023,1 44 23 0,0
17.06.2018 17:00:00 22,1 13,2 23,1 19,7 26,6 13 7 29 15 WNW 1023,0 54 11 0,0
17.06.2018 16:00:00 23,0 12,9 23,3 19,5 27,8 16 9 29 16 W 1023,1 43 32 0,0
17.06.2018 15:00:00 21,6 13,5 23,1 19,3 26,9 14 8 26 14 W 1023,3 51 13 0,0
17.06.2018 14:00:00 22,4 14,3 23,2 19,2 28,4 13 7 23 12 WSW 1023,3 19 35 0,0
17.06.2018 13:00:00 21,1 12,8 23,4 19,1 28,1 12 6 23 12 W 1023,5 60 8 0,0
17.06.2018 12:00:00 20,6 12,8 23,1 19,1 28,3 11 6 21 12 WSW 1023,6 20 49 0,0
17.06.2018 11:00:00 19,6 12,8 21,4 19,0 28,5 12 6 23 12 W 1023,9 60 40 0,0
17.06.2018 10:00:00 18,5 13,6 19,2 19,1 27,9 8 5 15 8 WNW 1023,9 59 54 0,0
17.06.2018 09:00:00 16,1 13,6 15,8 19,2 27,0 4 2 8 4 WNW 1023,7 37 0 0,0
17.06.2018 08:00:00 14,2 13,7 13,8 19,2 26,0 3 2 6 3 SSW 1023,4 18 8 0,0
17.06.2018 07:00:00 13,2 12,9 12,4 19,4 25,6 2 1 4 2 N 1023,2 13 0 0,0
17.06.2018 06:00:00 12,3 11,8 11,3 19,5 25,8 3 2 4 2 NE 1022,9 1,3 0 0,0
17.06.2018 05:00:00 12,4 12,1 8,9 19,6 25,6 2 1 3 2 E 1022,6 13 0 0,0
17.06.2018 04:00:00 11,5 11,0 8,8 19,8 25,6 0 0 4 2 N 1022,4 7 0 0,0
17.06.2018 03:00:00 12,1 11,6 9,8 19,9 25,7 2 1 6 3 SSW 1022,3 14 0 0,0
17.06.2018 02:00:00 12,5 11,6 9,6 20,0 25,7 4 2 8 5 SW 1022,5 14 0 0,0
17.06.2018 01:00:00 13,1 12,0 10,5 20,1 25,8 6 3 10 6 SW 1022,4 26 0 0,0
17.06.2018 00:00:00 14,2 12,4 11,9 20,1 25,7 7 4 16 9 WSW 1022,2 30 0 0,0
16.06.2018 23:00:00 15,7 12,4 14,3 20,1 25,5 11 6 20 11 W 1022,0 35 0 0,0
16.06.2018 22:00:00 17,0 12,9 15,8 20,2 26,3 13 7 25 14 W 1021,0 39 16 0,0
16.06.2018 21:00:00 19,4 13,3 19,4 20,1 26,5 18 10 27 14 WNW 1020,4 44 60 0,0
16.06.2018 20:00:00 21,0 11,9 21,8 20,0 26,9 18 10 30 16 W 1019,8 60 60 0,0
16.06.2018 19:00:00 22,0 11,7 23,0 19,9 27,3 16 9 29 16 WNW 1019,3 60 48 0,0
16.06.2018 18:00:00 21,7 12,8 23,5 19,8 28,1 18 10 31 17 W 1019,3 42 40 0,0
16.06.2018 17:00:00 21,2 11,8 23,4 19,7 27,2 15 8 26 14 WNW 1019,4 44 9 0,0
16.06.2018 16:00:00 21,0 12,9 23,8 19,5 26,8 17 9 27 15 W 1019,5 56 4 0,0
16.06.2018 15:00:00 21,0 12,4 24,1 19,3 26,6 14 8 25 13 W 1019,5 54 14 0,0

tt = temperature
td = dewpoint
tt 5cm = temperature 5cm
tt -20cm = temperature -20cm
tt -100cm = temperature -100cm
ff = wind speed
fx = gusts
dd = wind direction
ppp = reduced air pressure
vv = visibility
sd = sunshine duration
rr = precipitation

Next stations